Regional Weather Roundup
Issued by NWS Upton, NY

Current Version | Previous Version | Text Only | Print | Product List | Glossary On
Versions: 1 2 3 4 5 6 7 8 9 10 11 12 13 14 15 16 17 18 19 20 21 22 23 24 25 26 27 28 29 30 31 32 33 34 35 36 37 38 39 40 41 42 43 44 45 46 47 48 49 50
000 ASUS41 KOKX 012318 RWROKX REGIONAL WEATHER ROUNDUP NATIONAL WEATHER SERVICE NEW YORK NY 700 PM EDT WED JUL 01 2015 NOTE: "FAIR" INDICATES FEW OR NO CLOUDS BELOW 12,000 FEET WITH NO SIGNIFICANT WEATHER AND/OR OBSTRUCTIONS TO VISIBILITY. NYZ071-072-176-178-NJZ106-104-020000- NEW YORK CITY METRO AREA CITY SKY/WX TMP DP RH WIND PRES REMARKS CENTRAL PARK SUNNY 81 58 45 VRB6G23 29.80S LAGUARDIA APRT MOSUNNY 83 57 41 W16 29.76S KENNEDY INTL PTSUNNY 84 60 44 W17G23 29.78S NEWARK/LIBERTY PTSUNNY 83 61 47 W14 29.77S BRNX BOT. GARD N/A 81 57 44 W13 29.78S TETERBORO MOSUNNY 82 59 45 SW13G21 29.76S $$ NYZ177-179-078>081-020000- LONG ISLAND NEW YORK CITY SKY/WX TMP DP RH WIND PRES REMARKS FARMINGDALE MOSUNNY 83 58 42 W13 29.77S ISLIP MOSUNNY 77 67 71 SW10 29.76R SHIRLEY MOSUNNY 76 67 73 SW7 29.78S WESTHAMPTON MOSUNNY 73 68 84 SW12G20 29.79S MONTAUK POINT N/A 73 66 78 SW10 29.79S $$ NYZ052-065-067-020000- HUDSON VALLEY CITY SKY/WX TMP DP RH WIND PRES REMARKS WHITE PLAINS SUNNY 79 59 50 W5 29.78R NEWBURGH NOT AVBL MONTGOMERY NOT AVBL POUGHKEEPSIE MOSUNNY 79 59 50 W15G22 29.76R ALBANY PTSUNNY 72 60 66 W15 29.76R $$ NJZ001-105-106-008-010-013-015-019>022-104-020000- NEW JERSEY CITY SKY/WX TMP DP RH WIND PRES REMARKS NEWARK/LIBERTY PTSUNNY 83 61 47 W14 29.77S TETERBORO MOSUNNY 82 59 45 SW13G21 29.76S CALDWELL MOSUNNY 82 57 42 W12 29.79R MORRISTOWN MOSUNNY 82 61 47 MISG 29.79R SOMERVILLE SUNNY 80 59 48 VRB6 29.78R SUSSEX CLOUDY 77 58 51 VRB6 29.80R ANDOVER N/A 76 61 59 VRB5 29.81R TRENTON MOSUNNY 81 60 48 W9G18 29.81R MILLVILLE MOSUNNY 81 66 60 VRB3 29.83R ATLANTIC CITY MOSUNNY 83 65 54 SW7 29.82S WRIGHTSTOWN MOSUNNY 81 62 52 W12 29.79R TOMS RIVER MOSUNNY 82 64 54 W10 29.81R BELMAR SUNNY 81 63 54 W9 29.80R $$ PAZ047>061-062-071-020000- EASTERN PENNSYLVANIA CITY SKY/WX TMP DP RH WIND PRES REMARKS PHILADELPHIA PTSUNNY 84 60 44 W12 29.82R ALLENTOWN SUNNY 78 60 53 W8 29.81S SCRANTON PTSUNNY 75 60 59 SW7 29.82R $$ CTZ002-004>006-009-010-012-RIZ004-006-007-MAZ004-011-015-020000- SOUTHERN NEW ENGLAND IN CT CITY SKY/WX TMP DP RH WIND PRES REMARKS BRADLEY INTL MOSUNNY 79 57 46 W21G26 29.73R HARTFORD SUNNY 81 60 48 SW16G26 29.73R DANBURY MOSUNNY 77 58 51 W9G17 29.79R WTRBRY/OXFORD NOT AVBL BRIDGEPORT MOSUNNY 81 65 58 SW8 29.75S MERIDEN SUNNY 80 62 54 CALM 29.75R NEW HAVEN MOSUNNY 77 67 71 SW9 29.76R CHESTER FAIR 75 66 73 SW8 29.78S GROTON SUNNY 72 65 78 SW9 29.75S WILLIMANTIC MOSUNNY 78 64 61 S8 29.74S IN RI CITY SKY/WX TMP DP RH WIND PRES REMARKS PROVIDENCE MOSUNNY 77 66 68 S14 29.75R BLOCK ISLAND SUNNY 70 64 83 SW15 29.78S WESTERLY SUNNY 74 65 73 SW9 29.77S IN MA CITY SKY/WX TMP DP RH WIND PRES REMARKS BOSTON MOSUNNY 80 64 58 SW16G23 29.70R WORCESTER SUNNY 75 60 59 SW12 29.76R WESTFIELD PTSUNNY 77 58 51 W9 29.74R PROVINCETOWN SUNNY 70 12 11 SW17G23 29.74R NANTUCKET SUNNY 68 64 87 S15 29.80R $$ ANZ330-335-338-340-345-350-353-355-020000- COASTAL MARINE OBSERVATIONS STATION/POSITION TIME SKY/WX TEMP WIND PRES VSBY WAVE AIR SEA DIR/SP/G HT/PER (UTC) (F) (DEG/KT/KT) (MB) (MI) (FT/S) NY HARB ENTRANCE 2250 73 70 190/ 8/ 8 1008.0 4/ 6 4S FIRE IS 2303 68 N/A 4/ 6 20S FIRE ISLAND 2250 70 67 210/ 12/ 14 1008.4 4/ 7 GREAT SOUTH BAY 2215 73 75 260/ 16/ 19 N/A 23SW MTP 2250 69 66 220/ 14/ 16 1008.1 4/ 7 HUDSON CANYON NOT AVBL KINGS POINT 2200 80 70 280/ 13/ 19 1007.3 CENTRAL LI SOUND NOT AVBL EASTERN LI SOUND 2200 73 64 220/ 12/ 16 N/A ROBBINS REEF 2200 81 280/ 17/ 21 1007.0 $$ >>>>>>>>>>>>>>>>>>>>>>>>>>>> KEY <<<<<<<<<<<<<<<<<<<<<<<<<<< > < > SKY/WX - SKY CONDITION/PRESENT WEATHER < > TMP - TEMPERATURE IN FAHRENHEIT < > DP - DEWPOINT IN FAHRENHEIT < > RH - RELATIVE HUMIDITY IN PERCENT < > WIND - DIRECTION AND SPEED IN MPH < > PRES - MEAN SEA LEVEL PRESSURE IN INCHES OF HG < > WCI - WIND CHILL INDEX < > VSB - VISIBILITY IN MILES < > HX - HEAT INDEX < > TC - TEMPERATURE IN CELSIUS < > VRB - VARIABLE WIND DIRECTION < > < >>>>>>>>>>>>>>>>>>>>>>>>>>>> KEY <<<<<<<<<<<<<<<<<<<<<<<<<<<

USA.gov is the U.S. government's official web portal to all federal, state and local government web resources and services.